Location: Rounton
(54.4000°N, 1.3500°W)
Time: 22:59:30
(UTC+00:00)

Vanguard 1 - Pass Details

Date: 02 December 2021
Orbit: 652 x 3830 km, 34.2° (Epoch: 17 January)

Event Time Altitude Azimuth Distance (km) Brightness Sun altitude
Rises 02:09:30 0° 243° (WSW) 7,851 - -48.9°
Reaches altitude 10° 02:15:18 10° 237° (WSW) 6,923 - -48.2°
Maximum altitude 02:35:23 40° 179° (S) 4,442 - -45.8°
Exits shadow 02:36:59 39° 170° (S) 4,380 13.0 -45.6°
Drops below altitude 10° 02:50:27 10° 118° (ESE) 5,278 14.0 -43.9°
Sets 02:54:08 0° 111° (ESE) 5,906 14.5 -43.4°
